Time,TemperatureF,DewpointF,PressureIn,WindDirection,WindDirectionDegrees,WindSpeedMPH,WindSpeedGustMPH,Humidity,HourlyPrecipIn,Conditions,Clouds,dailyrainin,SolarRadiationWatts/m^2,SoftwareType,DateUTC
2013-07-26 00:02:00,69.0,39.0,-100.00,North,357,4.0,13.0,34,0.00,,,0.00,21.000000,,2013-07-26 07:02:00,
2013-07-26 00:12:00,69.0,39.0,-100.00,North,357,4.0,13.0,34,0.00,,,0.00,21.000000,,2013-07-26 07:12:00,
2013-07-26 00:32:00,67.0,47.0,-100.00,North,357,4.0,16.0,49,0.00,,,0.00,19.000000,,2013-07-26 07:32:00,
2013-07-26 00:43:00,67.0,47.0,-100.00,North,357,4.0,16.0,49,0.00,,,0.00,19.000000,,2013-07-26 07:43:00,
2013-07-26 00:53:00,67.0,47.0,-100.00,North,357,4.0,16.0,49,0.00,,,0.00,19.000000,,2013-07-26 07:53:00,
2013-07-26 01:02:00,67.0,47.0,-100.00,North,357,4.0,16.0,49,0.00,,,0.00,19.000000,,2013-07-26 08:02:00,
2013-07-26 01:12:00,67.0,47.0,-100.00,North,357,4.0,16.0,49,0.00,,,0.00,19.000000,,2013-07-26 08:12:00,
2013-07-26 01:32:00,66.0,50.0,-100.00,North,352,3.0,12.0,57,0.00,,,0.00,17.000000,,2013-07-26 08:32:00,
2013-07-26 01:44:00,66.0,50.0,-100.00,North,352,3.0,12.0,57,0.00,,,0.00,17.000000,,2013-07-26 08:44:00,
2013-07-26 01:52:00,66.0,50.0,-100.00,North,352,3.0,12.0,57,0.00,,,0.00,17.000000,,2013-07-26 08:52:00,
2013-07-26 02:02:00,66.0,50.0,-100.00,North,352,3.0,12.0,57,0.00,,,0.00,17.000000,,2013-07-26 09:02:00,
2013-07-26 02:12:00,66.0,50.0,-100.00,North,352,3.0,12.0,57,0.00,,,0.00,17.000000,,2013-07-26 09:12:00,
2013-07-26 02:43:00,65.0,51.0,-100.00,North,356,5.0,12.0,61,0.00,,,0.00,16.000000,,2013-07-26 09:43:00,
2013-07-26 02:52:00,65.0,51.0,-100.00,North,356,5.0,12.0,61,0.00,,,0.00,16.000000,,2013-07-26 09:52:00,
2013-07-26 03:02:00,65.0,51.0,-100.00,North,356,5.0,12.0,61,0.00,,,0.00,16.000000,,2013-07-26 10:02:00,
2013-07-26 03:11:00,65.0,51.0,-100.00,North,356,5.0,12.0,61,0.00,,,0.00,16.000000,,2013-07-26 10:11:00,
2013-07-26 03:33:00,60.0,50.0,-100.00,North,5,0.0,8.0,70,0.00,,,0.00,15.000000,,2013-07-26 10:33:00,
2013-07-26 03:42:00,60.0,50.0,-100.00,North,5,0.0,8.0,70,0.00,,,0.00,15.000000,,2013-07-26 10:42:00,
2013-07-26 03:52:00,60.0,50.0,-100.00,North,5,0.0,8.0,70,0.00,,,0.00,15.000000,,2013-07-26 10:52:00,
2013-07-26 04:02:00,60.0,50.0,-100.00,North,5,0.0,8.0,70,0.00,,,0.00,15.000000,,2013-07-26 11:02:00,
2013-07-26 04:12:00,60.0,50.0,-100.00,North,5,0.0,8.0,70,0.00,,,0.00,15.000000,,2013-07-26 11:12:00,
2013-07-26 04:43:00,60.0,50.0,-100.00,NNW,348,2.0,6.0,70,0.00,,,0.00,13.000000,,2013-07-26 11:43:00,
2013-07-26 04:52:00,60.0,50.0,-100.00,NNW,348,2.0,6.0,70,0.00,,,0.00,13.000000,,2013-07-26 11:52:00,
2013-07-26 05:02:00,60.0,50.0,-100.00,NNW,348,2.0,6.0,70,0.00,,,0.00,13.000000,,2013-07-26 12:02:00,
2013-07-26 05:12:00,60.0,50.0,-100.00,NNW,348,2.0,6.0,70,0.00,,,0.00,13.000000,,2013-07-26 12:12:00,
2013-07-26 05:43:00,59.0,50.0,-100.00,SSE,164,5.0,9.0,71,0.00,,,0.00,13.000000,,2013-07-26 12:43:00,
2013-07-26 05:53:00,59.0,50.0,-100.00,SSE,164,5.0,9.0,71,0.00,,,0.00,13.000000,,2013-07-26 12:53:00,
2013-07-26 06:02:00,59.0,50.0,-100.00,SSE,164,5.0,9.0,71,0.00,,,0.00,13.000000,,2013-07-26 13:02:00,
2013-07-26 06:12:00,59.0,50.0,-100.00,SSE,164,5.0,9.0,71,0.00,,,0.00,13.000000,,2013-07-26 13:12:00,
2013-07-26 06:43:00,60.0,49.0,-100.00,North,352,4.0,13.0,67,0.00,,,0.00,17.000000,,2013-07-26 13:43:00,
2013-07-26 06:53:00,60.0,49.0,-100.00,North,352,4.0,13.0,67,0.00,,,0.00,17.000000,,2013-07-26 13:53:00,
2013-07-26 07:02:00,60.0,49.0,-100.00,North,352,4.0,13.0,67,0.00,,,0.00,17.000000,,2013-07-26 14:02:00,
2013-07-26 07:11:00,60.0,49.0,-100.00,North,352,4.0,13.0,67,0.00,,,0.00,17.000000,,2013-07-26 14:11:00,
2013-07-26 07:43:00,60.0,49.0,-100.00,West,280,4.0,12.0,67,0.00,,,0.00,69.000000,,2013-07-26 14:43:00,
2013-07-26 07:53:00,60.0,49.0,-100.00,West,280,4.0,12.0,67,0.00,,,0.00,69.000000,,2013-07-26 14:53:00,
2013-07-26 08:02:00,60.0,49.0,-100.00,West,280,4.0,12.0,67,0.00,,,0.00,69.000000,,2013-07-26 15:02:00,
2013-07-26 08:12:00,60.0,49.0,-100.00,West,280,4.0,12.0,67,0.00,,,0.00,69.000000,,2013-07-26 15:12:00,
2013-07-26 08:14:00,61.0,50.0,-100.00,WNW,283,2.0,8.0,68,0.00,,,0.00,131.000000,,2013-07-26 15:14:00,
2013-07-26 08:43:00,61.0,50.0,-100.00,WNW,283,2.0,8.0,68,0.00,,,0.00,131.000000,,2013-07-26 15:43:00,
2013-07-26 08:53:00,61.0,50.0,-100.00,WNW,283,2.0,8.0,68,0.00,,,0.00,131.000000,,2013-07-26 15:53:00,
2013-07-26 09:02:00,61.0,50.0,-100.00,WNW,283,2.0,8.0,68,0.00,,,0.00,131.000000,,2013-07-26 16:02:00,
2013-07-26 09:43:00,69.0,51.0,-100.00,North,358,4.0,10.0,53,0.00,,,-99.99,458.000000,,2013-07-26 16:43:00,
2013-07-26 09:54:00,69.0,51.0,-100.00,North,358,4.0,10.0,53,0.00,,,-99.99,458.000000,,2013-07-26 16:54:00,
2013-07-26 10:02:00,69.0,51.0,-100.00,North,358,4.0,10.0,53,0.00,,,-99.99,458.000000,,2013-07-26 17:02:00,
2013-07-26 10:12:00,69.0,51.0,-100.00,North,358,4.0,10.0,53,0.00,,,-99.99,458.000000,,2013-07-26 17:12:00,
2013-07-26 10:43:00,76.0,54.0,-100.00,North,359,1.0,10.0,46,0.00,,,0.00,788.000000,,2013-07-26 17:43:00,
2013-07-26 11:44:00,77.0,53.0,-100.00,North,7,3.0,10.0,44,-99.99,,,0.00,957.000000,,2013-07-26 18:44:00,
2013-07-26 11:52:00,77.0,53.0,-100.00,North,7,3.0,10.0,44,-99.99,,,0.00,957.000000,,2013-07-26 18:52:00,
2013-07-26 12:02:00,77.0,53.0,-100.00,North,7,3.0,10.0,44,-99.99,,,0.00,957.000000,,2013-07-26 19:02:00,
2013-07-26 12:11:00,77.0,53.0,-100.00,North,7,3.0,10.0,44,-99.99,,,0.00,957.000000,,2013-07-26 19:11:00,
2013-07-26 12:43:00,80.0,53.0,-100.00,SW,216,3.0,13.0,39,-99.99,,,0.00,1146.000000,,2013-07-26 19:43:00,
2013-07-26 12:52:00,80.0,53.0,-100.00,SW,216,3.0,13.0,39,-99.99,,,0.00,1146.000000,,2013-07-26 19:52:00,
2013-07-26 13:02:00,80.0,53.0,-100.00,SW,216,3.0,13.0,39,-99.99,,,0.00,1146.000000,,2013-07-26 20:02:00,
2013-07-26 13:11:00,80.0,53.0,-100.00,SW,216,3.0,13.0,39,-99.99,,,0.00,1146.000000,,2013-07-26 20:11:00,
2013-07-26 13:43:00,82.0,51.0,-100.00,ESE,116,3.0,14.0,34,0.00,,,0.00,1243.000000,,2013-07-26 20:43:00,
2013-07-26 13:53:00,82.0,51.0,-100.00,ESE,116,3.0,14.0,34,0.00,,,0.00,1243.000000,,2013-07-26 20:53:00,
2013-07-26 14:01:00,82.0,51.0,-100.00,ESE,116,3.0,14.0,34,0.00,,,0.00,1243.000000,,2013-07-26 21:01:00,
2013-07-26 14:12:00,82.0,51.0,-100.00,ESE,116,3.0,14.0,34,0.00,,,0.00,1243.000000,,2013-07-26 21:12:00,
2013-07-26 15:33:00,85.0,45.0,-100.00,WSW,249,3.0,13.0,25,0.00,,,0.00,1195.000000,,2013-07-26 22:33:00,
2013-07-26 15:43:00,85.0,45.0,-100.00,WSW,249,3.0,13.0,25,0.00,,,0.00,1195.000000,,2013-07-26 22:43:00,
2013-07-26 15:53:00,85.0,45.0,-100.00,WSW,249,3.0,13.0,25,0.00,,,0.00,1195.000000,,2013-07-26 22:53:00,
2013-07-26 16:02:00,85.0,45.0,-100.00,WSW,249,3.0,13.0,25,0.00,,,0.00,1195.000000,,2013-07-26 23:02:00,
2013-07-26 16:11:00,85.0,45.0,-100.00,WSW,249,3.0,13.0,25,0.00,,,0.00,1195.000000,,2013-07-26 23:11:00,
2013-07-26 16:43:00,88.0,47.0,-100.00,WNW,293,4.0,13.0,24,0.00,,,0.00,1087.000000,,2013-07-26 23:43:00,
2013-07-26 16:53:00,88.0,47.0,-100.00,WNW,293,4.0,13.0,24,0.00,,,0.00,1087.000000,,2013-07-26 23:53:00,
2013-07-26 17:02:00,88.0,47.0,-100.00,WNW,293,4.0,13.0,24,0.00,,,0.00,1087.000000,,2013-07-27 00:02:00,
2013-07-26 17:11:00,88.0,47.0,-100.00,WNW,293,4.0,13.0,24,0.00,,,0.00,1087.000000,,2013-07-27 00:11:00,
2013-07-26 17:43:00,87.0,41.0,-100.00,ESE,117,4.0,13.0,20,0.00,,,0.00,892.000000,,2013-07-27 00:43:00,
2013-07-26 17:53:00,87.0,41.0,-100.00,ESE,117,4.0,13.0,20,0.00,,,0.00,892.000000,,2013-07-27 00:53:00,
2013-07-26 18:02:00,87.0,41.0,-100.00,ESE,117,4.0,13.0,20,0.00,,,0.00,892.000000,,2013-07-27 01:02:00,
2013-07-26 18:11:00,87.0,41.0,-100.00,ESE,117,4.0,13.0,20,0.00,,,0.00,892.000000,,2013-07-27 01:11:00,
2013-07-26 18:32:00,85.0,45.0,-100.00,WSW,248,5.0,15.0,25,0.00,,,0.00,646.000000,,2013-07-27 01:32:00,
2013-07-26 18:44:00,85.0,45.0,-100.00,WSW,248,5.0,15.0,25,0.00,,,0.00,646.000000,,2013-07-27 01:44:00,
2013-07-26 18:53:00,85.0,45.0,-100.00,WSW,248,5.0,15.0,25,0.00,,,0.00,646.000000,,2013-07-27 01:53:00,
2013-07-26 19:02:00,85.0,45.0,-100.00,WSW,248,5.0,15.0,25,0.00,,,0.00,646.000000,,2013-07-27 02:02:00,
2013-07-26 19:11:00,85.0,45.0,-100.00,WSW,248,5.0,15.0,25,0.00,,,0.00,646.000000,,2013-07-27 02:11:00,
2013-07-26 19:32:00,81.0,43.0,-100.00,WNW,291,3.0,12.0,26,0.00,,,-99.99,389.000000,,2013-07-27 02:32:00,
2013-07-26 19:43:00,81.0,43.0,-100.00,WNW,291,3.0,12.0,26,0.00,,,-99.99,389.000000,,2013-07-27 02:43:00,
2013-07-26 19:53:00,81.0,43.0,-100.00,WNW,291,3.0,12.0,26,0.00,,,-99.99,389.000000,,2013-07-27 02:53:00,
2013-07-26 20:02:00,81.0,43.0,-100.00,WNW,291,3.0,12.0,26,0.00,,,-99.99,389.000000,,2013-07-27 03:02:00,
2013-07-26 20:11:00,81.0,43.0,-100.00,WNW,291,3.0,12.0,26,0.00,,,-99.99,389.000000,,2013-07-27 03:11:00,
2013-07-26 20:44:00,76.0,49.0,-100.00,East,81,0.0,12.0,38,0.00,,,0.00,121.000000,,2013-07-27 03:44:00,
2013-07-26 20:52:00,76.0,49.0,-100.00,East,81,0.0,12.0,38,0.00,,,0.00,121.000000,,2013-07-27 03:52:00,
2013-07-26 21:02:00,76.0,49.0,-100.00,East,81,0.0,12.0,38,0.00,,,0.00,121.000000,,2013-07-27 04:02:00,
2013-07-26 21:11:00,76.0,49.0,-100.00,East,81,0.0,12.0,38,0.00,,,0.00,121.000000,,2013-07-27 04:11:00,
2013-07-26 21:32:00,69.0,47.0,-100.00,SW,236,4.0,12.0,45,0.00,,,0.00,30.000000,,2013-07-27 04:32:00,
2013-07-26 21:43:00,69.0,47.0,-100.00,SW,236,4.0,12.0,45,0.00,,,0.00,30.000000,,2013-07-27 04:43:00,
2013-07-26 21:53:00,69.0,47.0,-100.00,SW,236,4.0,12.0,45,0.00,,,0.00,30.000000,,2013-07-27 04:53:00,
2013-07-26 22:02:00,69.0,47.0,-100.00,SW,236,4.0,12.0,45,0.00,,,0.00,30.000000,,2013-07-27 05:02:00,
2013-07-26 22:12:00,69.0,47.0,-100.00,SW,236,4.0,12.0,45,0.00,,,0.00,30.000000,,2013-07-27 05:12:00,
2013-07-26 22:33:00,66.0,43.0,-100.00,ESE,118,5.0,13.0,43,0.00,,,0.00,19.000000,,2013-07-27 05:33:00,
2013-07-26 23:43:00,65.0,42.0,-100.00,SSW,198,5.0,14.0,43,0.00,,,0.00,17.000000,,2013-07-27 06:43:00,
2013-07-26 23:52:00,65.0,42.0,-100.00,SSW,198,5.0,14.0,43,0.00,,,0.00,17.000000,,2013-07-27 06:52:00,